"Time","Temp","Dewpoint","Humidity","Pressure","Direction","Speed","Gust","Precip","PrecipRate"
"00:04:55","47.8","34.3","59.2","30.09","307","0.2","1.2","0.00","0.00"
"00:09:58","47.8","34.1","58.7","30.09","307","0","0","0.00","0.00"
"00:14:59","47.9","33.7","57.9","30.09","307","0","0","0.00","0.00"
"00:19:59","47.8","33","56.3","30.09","307","0","0","0.00","0.00"
"00:24:59","47.8","33.1","56.5","30.09","307","0","0","0.00","0.00"
"00:29:59","47.7","33.1","56.7","30.10","307","0","0","0.00","0.00"
"00:34:55","47.7","33.1","56.8","30.10","307","0","0","0.00","0.00"
"00:39:58","47.6","32.8","56.3","30.10","307","0","0","0.00","0.00"
"00:44:58","47.4","33.5","58.3","30.10","307","0","0","0.00","0.00"
"00:49:58","47.1","34.9","62.3","30.10","307","0","0","0.00","0.00"
"00:54:58","46.8","34.7","62.5","30.10","308","1.1","3.5","0.00","0.00"
"00:59:58","46.8","32.4","57.2","30.10","318","2.4","3.5","0.00","0.00"
"01:04:59","47.5","32.2","55.1","30.10","326","2.5","3.5","0.00","0.00"
"01:09:59","48.2","32.5","54.4","30.10","337","1.9","6","0.00","0.00"
"01:14:57","48.3","34.2","58.1","30.10","351","1.1","3","0.00","0.00"
"01:19:57","47.8","33.9","58.3","30.10","348","0.6","2.3","0.00","0.00"
"01:24:57","47.5","32.6","56.2","30.10","327","0.3","3.5","0.00","0.00"
"01:29:58","47.5","30.9","52.4","30.11","327","0","2","0.00","0.00"
"01:34:58","47.8","30.2","50.5","30.11","327","0.2","2.3","0.00","0.00"
"01:39:56","48.2","29.3","47.9","30.11","333","1.5","5","0.00","0.00"
"01:44:56","49.3","29.4","46","30.11","353","1.2","4","0.00","0.00"
"01:49:56","50.3","29.5","44.5","30.11","349","1.3","5","0.00","0.00"
"01:54:57","51","29.3","43.2","30.11","356","0.6","4","0.00","0.00"
"01:59:57","51.5","29.7","43","30.12","342","0.7","4","0.00","0.00"
"02:04:59","51.8","30","43","30.12","336","0.5","2.3","0.00","0.00"
"02:09:59","52","30.2","43","30.12","336","0.8","3","0.00","0.00"
"02:14:57","52.2","30.4","43","30.12","339","1.1","5","0.00","0.00"
"02:19:58","52.3","30.9","43.9","30.12","344","1.5","4.6","0.00","0.00"
"02:24:58","52.3","31.1","44.2","30.12","350","1.9","6","0.00","0.00"
"02:29:59","52.4","31.2","44.3","30.12","340","1.5","4","0.00","0.00"
"02:34:56","52.3","31.3","44.6","30.12","329","1.4","3.5","0.00","0.00"
"02:39:59","52.1","31.7","45.6","30.12","323","0.8","2.3","0.00","0.00"
"02:44:56","51.7","32","46.8","30.12","323","0.7","3.5","0.00","0.00"
"02:49:57","51.2","32.1","47.7","30.12","323","0.5","2.3","0.00","0.00"
"02:54:57","50.7","32","48.7","30.12","323","0.3","2","0.00","0.00"
"02:59:58","50.1","32","49.4","30.12","323","1.1","3.5","0.00","0.00"
"03:04:56","49.8","32","50.1","30.12","323","0.9","2.3","0.00","0.00"
"03:09:58","49.4","32.5","51.8","30.12","323","0.3","2.3","0.00","0.00"
"03:14:59","48.9","32.2","52.5","30.12","323","0.2","2.3","0.00","0.00"
"03:19:59","48.3","33","55.3","30.12","323","0.2","2","0.00","0.00"
"03:24:56","47.5","33.3","57.7","30.12","324","0.3","2.3","0.00","0.00"
"03:29:56","46.7","33","58.9","30.12","325","0","1.2","0.00","0.00"
"03:34:58","45.9","32.6","59.4","30.12","325","0","1","0.00","0.00"
"03:39:56","45.4","32.8","61.2","30.12","325","0","1.2","0.00","0.00"
"03:44:56","44.9","32.9","62.6","30.12","325","0","0","0.00","0.00"
"03:49:56","44.4","33.1","64.3","30.12","325","0","0","0.00","0.00"
"03:54:56","43.9","32.8","64.9","30.12","325","0","0","0.00","0.00"
"03:59:57","43.5","32.2","64.3","30.12","325","0","0","0.00","0.00"
"04:04:59","43.3","32.3","65","30.12","325","0","0","0.00","0.00"
"04:09:59","43.4","32.3","64.8","30.12","325","0","0","0.00","0.00"
"04:14:56","43.9","32.3","63.4","30.13","325","0.1","2","0.00","0.00"
"04:19:57","44.2","31.7","61.1","30.13","325","0.8","2.3","0.00","0.00"
"04:24:58","44.2","32.8","63.8","30.13","325","0","1.2","0.00","0.00"
"04:29:58","43.6","33.5","67.5","30.13","325","0.1","1.2","0.00","0.00"
"04:34:57","42.9","33.5","69.4","30.13","325","0.2","1.2","0.00","0.00"
"04:39:59","42.3","33.5","70.8","30.13","325","0","1.2","0.00","0.00"
"04:44:56","41.7","33.3","71.8","30.13","325","0","0","0.00","0.00"
"04:49:56","41.3","33.4","73.4","30.13","325","0","0","0.00","0.00"
"04:54:56","40.9","33.9","76","30.13","325","0.2","1.2","0.00","0.00"
"04:59:57","40.5","34.1","77.6","30.14","325","0.3","1.2","0.00","0.00"
"05:04:59","40.1","33.9","78.1","30.14","325","0.7","1.2","0.00","0.00"
"05:09:57","39.8","33.5","78","30.14","325","0.4","1.2","0.00","0.00"
"05:14:55","39.6","33.3","78","30.14","325","0.1","1.2","0.00","0.00"
"05:19:56","39.3","33","78","30.14","325","0","1.2","0.00","0.00"
"05:24:56","39.1","33.1","79","30.14","325","0","1.2","0.00","0.00"
"05:29:57","39","33.4","80","30.15","325","0","0","0.00","0.00"
"05:34:57","38.8","33.2","80","30.15","325","0","0","0.00","0.00"
"05:39:59","38.6","33","80","30.15","325","0.1","1.2","0.00","0.00"
"05:44:58","38.5","33.1","80.8","30.15","325","0","1.2","0.00","0.00"
"05:49:58","38.4","33.1","81","30.15","325","0.3","1.2","0.00","0.00"
"05:54:59","38.2","32.5","79.7","30.15","325","1.2","2.3","0.00","0.00"
"05:59:58","38.2","32","78.2","30.15","325","0.2","2.3","0.00","0.00"
"06:04:56","38.2","32.3","79","30.15","325","0","0","0.00","0.00"
"06:09:58","38","32.1","79","30.15","325","0","0","0.00","0.00"
"06:14:59","37.9","32.1","79.5","30.15","325","0","0","0.00","0.00"
"06:19:59","37.7","32.1","80","30.15","325","0","0","0.00","0.00"
"06:24:56","37.6","32.1","80.4","30.15","325","0","0","0.00","0.00"
"06:29:56","37.4","32.1","80.8","30.15","325","0.3","2.3","0.00","0.00"
"06:34:56","37.4","31.8","80","30.15","325","0.8","2.3","0.00","0.00"
"06:39:59","37.5","31.9","80","30.15","325","0.5","1.2","0.00","0.00"
"06:44:56","37.4","31.7","79.7","30.16","325","1","2.3","0.00","0.00"
"06:49:56","37.5","31.6","79.3","30.16","325","0.5","2.3","0.00","0.00"
"06:54:58","37.5","32.1","80.5","30.16","325","0.3","1.2","0.00","0.00"
"06:59:58","37.5","31.8","79.8","30.16","325","0.8","2.3","0.00","0.00"
"07:04:56","37.6","31.6","78.6","30.16","325","1.1","2.3","0.00","0.00"
"07:09:57","37.8","31.5","77.6","30.16","325","1.2","2.3","0.00","0.00"
"07:14:59","38.1","31.6","77.2","30.17","325","0.6","2.3","0.00","0.00"
"07:19:56","38.4","32.1","78","30.17","325","0.1","1.2","0.00","0.00"
"07:24:56","38.6","32.1","77.1","30.17","325","0.3","1.2","0.00","0.00"
"07:29:56","38.9","32.5","77.7","30.17","325","0.1","1.2","0.00","0.00"
"07:34:56","39.2","32.7","77.5","30.17","325","0","0","0.00","0.00"
"07:39:58","39.5","32.8","76.6","30.17","325","0","1.2","0.00","0.00"
"07:44:58","39.9","32.6","75","30.17","325","0.1","1.2","0.00","0.00"
"07:49:57","40.5","33","74.4","30.17","325","0","1.2","0.00","0.00"
"07:54:57","41.3","33.2","72.7","30.17","325","0","2","0.00","0.00"
"07:59:58","42.2","34.2","73","30.17","325","0","0","0.00","0.00"
"08:04:57","43.2","35","72.6","30.17","325","0","1.2","0.00","0.00"
"08:09:58","44.1","35.4","71.2","30.17","325","0","1","0.00","0.00"
"08:14:56","45.1","35.6","69.1","30.17","325","0.1","1.2","0.00","0.00"
"08:19:56","46.1","36","67.6","30.17","323","0.6","3.5","0.00","0.00"
"08:24:59","47.6","35.1","61.9","30.17","322","2.1","3.5","0.00","0.00"
"08:29:59","48.9","34.4","57.2","30.17","326","2.3","4","0.00","0.00"
"08:34:56","50","34.3","54.6","30.17","325","2.6","4","0.00","0.00"
"08:39:57","50.9","34.5","53.2","30.17","328","2.8","4","0.00","0.00"
"08:44:56","51.6","33.7","50.3","30.17","318","3.6","7","0.00","0.00"
"08:49:57","52.1","33.5","48.8","30.17","322","4.6","10","0.00","0.00"
"08:54:57","52.6","33.6","48.3","30.17","321","3.6","7","0.00","0.00"
"08:59:59","53.1","34","48.1","30.17","316","4.1","9.2","0.00","0.00"
"09:04:57","53.5","33.6","46.9","30.17","324","4.4","7","0.00","0.00"
"09:09:57","53.9","34.1","47.2","30.17","323","3.5","9","0.00","0.00"
"09:14:59","54.2","33.4","45.2","30.17","327","4.5","9.2","0.00","0.00"
"09:19:56","54.4","34.1","46.1","30.17","334","4","10.4","0.00","0.00"
"09:24:57","54.9","34","45.2","30.17","326","3.7","10.4","0.00","0.00"
"09:29:56","55.4","34.9","45.9","30.17","318","3.3","6","0.00","0.00"
"09:34:57","56.1","34.7","44.5","30.17","330","3.3","9","0.00","0.00"
"09:39:59","56.5","34.3","42.9","30.17","319","3.6","9.2","0.00","0.00"
"09:44:59","56.9","33.9","41.9","30.17","325","4.8","9.2","0.00","0.00"
"09:49:56","57.3","34.4","42","30.16","313","3.7","9.2","0.00","0.00"
"09:54:57","57.5","34.2","41.4","30.16","314","4.1","7","0.00","0.00"
"09:59:57","57.7","33.8","40.5","30.16","306","3.7","7","0.00","0.00"
"10:04:58","58.1","35.2","42.1","30.16","299","3.5","9.2","0.00","0.00"
"10:09:58","58.6","35.1","41.2","30.16","297","4","9.2","0.00","0.00"
"10:14:56","59.2","35.1","40.3","30.16","286","4.7","10.4","0.00","0.00"
"10:19:57","59.5","34.3","38.7","30.16","316","4.7","9.2","0.00","0.00"
"10:24:58","59.6","34","38.1","30.16","311","5","9.2","0.00","0.00"
"10:29:59","59.7","34.3","38.4","30.16","321","4.8","12","0.00","0.00"
"10:34:55","60","35.5","39.9","30.15","299","4.2","9.2","0.00","0.00"
"10:39:58","60.5","36","40","30.15","7","3","9.2","0.00","0.00"
"10:44:59","61.1","37.6","41.6","30.15","256","3.2","6","0.00","0.00"
"10:49:59","61.5","34.3","36.1","30.15","349","4.8","13","0.00","0.00"
"10:54:56","61.5","35.4","37.6","30.15","276","4.1","12.7","0.00","0.00"
"10:59:57","61.9","35.2","36.9","30.15","265","3.4","9","0.00","0.00"
"11:04:58","62.1","35","36.3","30.15","314","3.9","12","0.00","0.00"
"11:09:58","62.1","35.6","37.2","30.15","303","3.8","11.5","0.00","0.00"
"11:14:57","62.3","34.7","35.6","30.15","295","2.8","6","0.00","0.00"
"11:19:58","62.2","35.6","37.1","30.15","277","3.1","9","0.00","0.00"
"11:24:59","62.2","34.8","35.9","30.15","305","4","11","0.00","0.00"
"11:29:56","62.3","35.8","37.2","30.15","257","3.7","9.2","0.00","0.00"
"11:34:57","62.6","35.4","36.2","30.14","319","3.8","9","0.00","0.00"
"11:39:59","63","35","35.3","30.14","322","4.6","10.4","0.00","0.00"
"11:44:59","63.1","35.5","35.7","30.14","288","3.6","8.1","0.00","0.00"
"11:49:59","63.1","34.1","33.9","30.13","329","5.4","13","0.00","0.00"
"11:54:56","63.3","35.7","35.8","30.13","319","5.1","12.7","0.00","0.00"
"11:59:57","63.7","35.1","34.5","30.13","341","4.2","10.4","0.00","0.00"
"12:04:58","64","35.7","34.9","30.13","311","4.7","10.4","0.00","0.00"
"12:09:58","64.2","37","36.5","30.13","314","3.4","9.2","0.00","0.00"
"12:14:57","64.6","37.2","36.3","30.13","327","5","11.5","0.00","0.00"
"12:19:57","64.9","35.3","33.3","30.12","331","4.2","12","0.00","0.00"
"12:24:57","65","35.4","33.4","30.12","314","3.8","9.2","0.00","0.00"
"12:29:58","65.1","37.2","35.6","30.12","324","3.9","10.4","0.00","0.00"
"12:34:59","65.6","37.6","35.7","30.12","334","3.3","10.4","0.00","0.00"
"12:39:57","65.9","36.8","34.1","30.12","302","3.5","9.2","0.00","0.00"
"12:44:58","65.9","38.4","36.4","30.12","255","4.2","9.2","0.00","0.00"
"12:49:59","66.5","38","35.1","30.11","327","4.3","10.4","0.00","0.00"
"12:54:57","66.6","37.3","33.9","30.11","305","4.1","10.4","0.00","0.00"
"12:59:58","66.5","36.9","33.6","30.11","281","3.2","10.4","0.00","0.00"
"13:04:56","66.9","37.8","34.3","30.10","17","4.6","11.5","0.00","0.00"
"13:09:56","67.1","36.9","32.9","30.10","288","3.8","10","0.00","0.00"
"13:14:59","67.2","37","32.9","30.10","268","5","10.4","0.00","0.00"
"13:19:57","67.6","37.8","33.5","30.10","308","3.7","11.5","0.00","0.00"
"13:24:58","68","36.8","31.7","30.10","342","4.1","11.5","0.00","0.00"
"13:29:59","68.1","36.6","31.4","30.10","308","4.2","14","0.00","0.00"
"13:34:57","68.3","37.2","31.9","30.09","310","3.1","6","0.00","0.00"
"13:39:56","68.5","37.9","32.6","30.09","313","3.9","10.4","0.00","0.00"
"13:44:56","68.6","37","31.3","30.09","323","3.7","11.5","0.00","0.00"
"13:49:57","69","38.5","32.7","30.08","315","2.3","6.9","0.00","0.00"
"13:54:57","69.4","38.2","32.1","30.08","287","4.5","11","0.00","0.00"
"13:59:57","69.2","36.4","30","30.08","315","3.6","11.5","0.00","0.00"
"14:04:58","69.6","40.8","35.1","30.07","265","3.1","7","0.00","0.00"
"14:09:59","69.9","37.4","30.5","30.07","282","3.3","7","0.00","0.00"
"14:14:55","69.9","36.9","29.9","30.07","294","4","10.4","0.00","0.00"
"14:19:59","70","38.9","32.2","30.07","234","3.4","8","0.00","0.00"
"14:24:59","70.4","36.5","29","30.07","331","5.2","10.4","0.00","0.00"
"14:29:58","70.4","36.2","28.6","30.07","304","5.4","16.1","0.00","0.00"
"14:34:58","70.2","34.9","27.3","30.06","325","6.5","16.1","0.00","0.00"
"14:39:58","70","34.9","27.5","30.06","325","5.5","10.4","0.00","0.00"
"14:44:58","70.2","36.2","28.8","30.06","292","3.8","10","0.00","0.00"
"14:49:58","70.7","37.5","29.7","30.05","274","4.9","11.5","0.00","0.00"
"14:54:58","70.9","36.8","28.8","30.05","333","4.7","11.5","0.00","0.00"
"14:59:58","71","37.8","29.9","30.05","250","3.2","9.2","0.00","0.00"
"15:04:59","71.4","39.8","31.9","30.04","243","3.3","7","0.00","0.00"
"15:09:59","71.6","37.8","29.3","30.04","307","3.4","7","0.00","0.00"
"15:14:57","71.7","38","29.4","30.04","291","4.7","9.2","0.00","0.00"
"15:19:56","72","38.7","29.9","30.03","309","2.7","6.9","0.00","0.00"
"15:24:56","72.4","39","29.8","30.03","218","2.7","6","0.00","0.00"
"15:29:56","72.8","39.8","30.4","30.03","255","2.9","10","0.00","0.00"
"15:34:56","73.4","40.8","30.9","30.03","264","3.4","10.4","0.00","0.00"
"15:39:58","73.8","40.3","29.9","30.03","243","4.2","6.9","0.00","0.00"
"15:44:59","73.8","38.7","28.1","30.03","282","3.2","9","0.00","0.00"
"15:49:59","73.9","39.3","28.8","30.01","254","2.6","6","0.00","0.00"
"15:54:58","73.7","38.2","27.6","30.01","294","3.7","10","0.00","0.00"
"15:59:57","73.2","37.1","26.9","30.01","328","5.1","11.5","0.00","0.00"
"16:04:59","72.9","36.6","26.6","30.01","321","2.8","9.2","0.00","0.00"
"16:09:59","72.3","36.7","27.3","30.01","306","2.7","7","0.00","0.00"
"16:14:58","71.9","36.5","27.5","30.01","328","3.5","9.2","0.00","0.00"
"16:19:59","71.3","35.6","27","30.00","335","3.3","6.9","0.00","0.00"
"16:24:55","71","36","27.7","30.00","332","2.5","5","0.00","0.00"
"16:29:57","71","36","27.7","30.00","332","2.4","5","0.00","0.00"
"16:34:58","71.2","36.5","28.2","30.00","326","1.9","5","0.00","0.00"
"16:39:56","71.4","37.8","29.4","30.00","323","1.2","3.5","0.00","0.00"
"16:44:57","71.8","38.9","30.4","30.00","263","1.1","3.5","0.00","0.00"
"16:49:58","72.3","39","30","29.99","275","1.7","5","0.00","0.00"
"16:54:59","73.1","38.8","28.9","29.99","283","1.8","7","0.00","0.00"
"16:59:56","73.5","38.5","28.3","29.99","282","1.8","4","0.00","0.00"
"17:04:57","73.2","37.5","27.2","29.98","260","1.9","6","0.00","0.00"
"17:09:58","72.9","37.6","27.8","29.98","243","1.2","3.5","0.00","0.00"
"17:14:59","72.9","39.3","29.7","29.98","233","2.7","6","0.00","0.00"
"17:19:56","73.2","39.2","29.3","29.98","220","3.8","5.8","0.00","0.00"
"17:24:57","73.5","37.9","27.5","29.98","205","2.4","4","0.00","0.00"
"17:29:57","73.8","36.9","26.1","29.98","207","1.8","3.5","0.00","0.00"
"17:34:58","74.3","38.8","27.8","29.98","208","1.3","3.5","0.00","0.00"
"17:39:59","74.7","38.6","27.3","29.98","258","2.2","6","0.00","0.00"
"17:44:59","74.7","38.4","27","29.98","252","3.2","6","0.00","0.00"
"17:49:59","74.8","39.2","27.7","29.98","294","2.3","5","0.00","0.00"
"17:54:56","75","38.7","26.9","29.98","298","2.5","6","0.00","0.00"
"17:59:56","75","37.7","25.9","29.98","297","2.4","7","0.00","0.00"
"18:04:57","74.9","39.4","27.8","29.97","286","1.5","6.9","0.00","0.00"
"18:09:58","74.5","38.1","26.9","29.97","259","2.1","4","0.00","0.00"
"18:14:56","74.2","38.9","27.8","29.97","276","1.7","6","0.00","0.00"
"18:19:59","73.7","39","28.6","29.97","233","3.1","6","0.00","0.00"
"18:24:56","72.8","38.2","28.5","29.97","233","2.9","5.8","0.00","0.00"
"18:29:56","72.3","38.5","29.3","29.97","229","2.8","5","0.00","0.00"
"18:34:56","71.8","39.3","30.7","29.97","229","3.2","5","0.00","0.00"
"18:39:58","71.3","38.6","30.4","29.97","227","2.7","4.6","0.00","0.00"
"18:44:58","70.9","38.1","30.2","29.97","227","2.1","3.5","0.00","0.00"
"18:49:58","70.7","38.2","30.5","29.97","227","1.1","3.5","0.00","0.00"
"18:54:58","70.5","37.9","30.4","29.97","227","0","1.2","0.00","0.00"
"18:59:58","70.3","37.6","30.2","29.97","227","0.4","2.3","0.00","0.00"
"19:04:56","70","37.1","30","29.96","227","0.3","2.3","0.00","0.00"
"19:09:56","69.7","36.9","30","29.96","227","0","0","0.00","0.00"
"19:14:59","69.3","37.2","30.8","29.96","227","0","1.2","0.00","0.00"
"19:19:59","68.9","36.8","30.7","29.96","227","0","1.2","0.00","0.00"
"19:24:56","68.5","36.6","30.9","29.96","227","0","0","0.00","0.00"
"19:29:57","68","38.9","34.4","29.97","227","0","0","0.00","0.00"
"19:34:58","67.2","38.9","35.4","29.97","227","0","1.2","0.00","0.00"
"19:39:57","66.5","39.3","36.9","29.97","227","0.5","1.2","0.00","0.00"
"19:44:58","65.6","39.8","38.7","29.97","227","0.5","2","0.00","0.00"
"19:49:59","64.9","39.4","39.1","29.97","227","0.3","1.2","0.00","0.00"
"19:54:57","64.4","41.3","42.9","29.97","227","0.1","1.2","0.00","0.00"
"19:59:56","63.6","41.8","44.9","29.98","227","0","0","0.00","0.00"
"20:04:59","63","41.5","45.3","29.98","227","0","0","0.00","0.00"
"20:09:59","62.5","40.7","44.8","29.98","227","0","1","0.00","0.00"
"20:14:59","62","40.5","45.1","29.98","227","0.3","1.2","0.00","0.00"
"20:19:56","61.5","41.8","48.2","29.98","227","0.2","1.2","0.00","0.00"
"20:24:58","61.1","41.5","48.6","29.98","227","0.5","2.3","0.00","0.00"
"20:29:56","60.9","41.2","48.3","29.98","191","0.2","3","0.00","0.00"
"20:34:59","60.8","39.1","44.7","29.98","103","0.7","3.5","0.00","0.00"
"20:39:57","61.1","37.8","41.9","29.98","34","1.4","4","0.00","0.00"
"20:44:59","61.5","38.4","42.4","30.00","345","0.2","2.3","0.00","0.00"
"20:49:56","61.6","40.9","46.7","30.00","342","0.7","3.5","0.00","0.00"
"20:54:58","61.1","43.8","52.9","30.00","342","0.7","2.3","0.00","0.00"
"20:59:56","60.5","42.7","51.9","30.00","342","0.6","1.2","0.00","0.00"
"21:04:58","60.3","44.2","55.3","30.00","342","0.3","1.2","0.00","0.00"
"21:09:59","59.6","44.7","57.8","30.00","342","0","0","0.00","0.00"
"21:14:59","59.3","41.9","52.5","30.00","311","1.1","2.3","0.00","0.00"
"21:19:56","59.2","44.6","58.2","30.00","238","0.7","2.3","0.00","0.00"
"21:24:58","59.2","42","52.9","30.00","238","1","3.5","0.00","0.00"
"21:29:55","59.5","43","54.4","30.00","238","0.5","2.3","0.00","0.00"
"21:34:57","59.7","42.5","53.1","30.00","238","0.1","1.2","0.00","0.00"
"21:39:56","59.7","44.3","56.9","30.00","238","0.8","2.3","0.00","0.00"
"21:44:58","59.6","42.6","53.5","30.01","238","0.1","2.3","0.00","0.00"
"21:49:59","59.6","42.7","53.6","30.01","238","0.2","1.2","0.00","0.00"
"21:54:57","59.5","43.6","55.5","30.01","238","0.2","2.3","0.00","0.00"
"21:59:58","59.2","44.4","58","30.01","238","0.9","2.3","0.00","0.00"
"22:04:56","58.7","44.9","60.2","30.00","238","0.4","1.2","0.00","0.00"
"22:09:57","58.2","43.8","58.7","30.00","238","0","1.2","0.00","0.00"
"22:14:56","57.8","42.2","56","30.00","238","0.8","2.3","0.00","0.00"
"22:19:56","57.8","43.3","58.5","30.00","238","0.2","2.3","0.00","0.00"
"22:24:58","57.8","42.8","57.4","30.00","238","0","0","0.00","0.00"
"22:29:59","57.7","45","62.7","30.01","238","0","0","0.00","0.00"
"22:34:57","57.4","44.7","62.6","30.01","238","0.6","2.3","0.00","0.00"
"22:39:56","57.2","44.4","62.2","30.01","238","0.7","2.3","0.00","0.00"
"22:44:58","57.3","43.9","60.8","30.01","238","0.3","1.2","0.00","0.00"
"22:49:59","57.4","43.4","59.5","30.00","238","0.2","2.3","0.00","0.00"
"22:54:56","57.4","45.6","64.8","30.00","238","0.5","2.3","0.00","0.00"
"22:59:57","57.2","44.6","62.8","30.00","238","0","1.2","0.00","0.00"
"23:04:59","57.1","44.8","63.6","30.00","238","0","0","0.00","0.00"
"23:09:56","57","45.5","65.5","30.00","238","0","0","0.00","0.00"
"23:14:59","56.9","46","66.8","30.00","238","0","0","0.00","0.00"
"23:19:59","56.7","45.7","66.5","30.00","238","0","0","0.00","0.00"
"23:24:56","56.4","45.9","67.7","30.00","238","0","0","0.00","0.00"
"23:29:57","56.2","45.6","67.5","30.00","238","0","0","0.00","0.00"
"23:34:59","56","45","66.7","30.00","238","0.7","2.3","0.00","0.00"
"23:39:58","56","45.4","67.5","30.00","238","0.5","2.3","0.00","0.00"
"23:44:56","55.9","45.6","68.2","30.00","238","0.1","1.2","0.00","0.00"
"23:49:58","55.8","45.1","67.1","30.00","238","0.7","2.3","0.00","0.00"
"23:54:59","55.8","43.6","63.5","30.00","238","0.2","2.3","0.00","0.00"
"23:59:56","55.7","42.1","60.2","30.00","238","0.2","2.3","0.00","0.00"
